Weather History for KNYL - April, 2013

Change the Weather History Date:

Wednesday, April 3, 2013

  Actual Average Record
Temperature  
Mean Temperature 76 °F 70 °F  
Max Temperature 93 °F 83 °F 103 °F (1961)
Min Temperature 58 °F 57 °F 41 °F (1977)
Degree Days  
Heating Degree Days 0 1  
Month to date heating degree days 0 3  
Since 1 July heating degree days 705 676  
Cooling Degree Days 11 6  
Month to date cooling degree days 27 17  
Year to date cooling degree days 236 170  
Growing Degree Days 26 (Base 50)    
Moisture  
Dew Point 35 °F    
Average Humidity 28    
Maximum Humidity 47    
Minimum Humidity 8    
Precipitation  
Precipitation 0.00 in 0.00 in 1.07 in (1965)
Month to date precipitation 0.00 0.02  
Year to date precipitation 1.11 1.11  
Sea Level Pressure  
Sea Level Pressure 29.94 in    
Wind  
Wind Speed 4 mph (WNW)    
Max Wind Speed 14 mph    
Max Gust Speed 22 mph    
Visibility 10 miles    
Events      
T = Trace of Precipitation, MM = Missing Value Source: NWS Daily Summary

Daily Weather History Graph

Daily Weather History Graph

Search for Another Location

Airport or City:

Trip Planner

Search our weather history database for the weather conditions in past years. The results will help you decide how hot, cold, wet, or windy it might be!

Date:

Astronomy

Apr. 03, 2013 Rise Set
Actual Time 6:23 AM MST 7:00 PM MST
Civil Twilight 5:58 AM MST 7:25 PM MST
Nautical Twilight 5:29 AM MST 7:54 PM MST
Astronomical Twilight 4:59 AM MST 8:24 PM MST
Moon 1:46 AM MST (4/3) 12:36 PM MST (4/3)
Length of Visible Light 13h 26m
Length of Day
12h 36m
Last Quarter, 43% of the Moon is Illuminated
Apr 3
Last Quarter
Apr 10
New
Apr 18
First Quarter
Apr 25
Full
May 2
Last Quarter

Hourly Weather History & Observations

Time (MST) Temp. Dew Point Humidity Pressure Visibility Wind Dir Wind Speed Gust Speed Precip Events Conditions
12:55 AM 66.0 °F 39.0 °F 37% 29.92 in 10.0 mi SSE 3.5 mph - N/A   Clear
1:55 AM 66.0 °F 37.9 °F 36% 29.92 in 10.0 mi SE 3.5 mph - N/A   Clear
2:55 AM 63.0 °F 37.9 °F 40% 29.91 in 10.0 mi South 5.8 mph - N/A   Clear
3:55 AM 60.1 °F 39.9 °F 47% 29.92 in 10.0 mi South 3.5 mph - N/A   Clear
4:55 AM 59.0 °F 39.9 °F 49% 29.94 in 10.0 mi Calm Calm - N/A   Clear
5:55 AM 60.1 °F 39.0 °F 46% 29.94 in 10.0 mi Calm Calm - N/A   Partly Cloudy
6:55 AM 61.0 °F 35.1 °F 38% 29.96 in 10.0 mi Calm Calm - N/A   Scattered Clouds
7:55 AM 63.0 °F 37.0 °F 38% 29.99 in 10.0 mi Calm Calm - N/A   Partly Cloudy
8:55 AM 72.0 °F 37.0 °F 28% 29.99 in 10.0 mi Calm Calm - N/A   Partly Cloudy
9:55 AM 80.1 °F 33.1 °F 18% 30.00 in 10.0 mi North 3.5 mph - N/A   Partly Cloudy
10:55 AM 86.0 °F 30.0 °F 13% 29.99 in 10.0 mi NE 6.9 mph - N/A   Partly Cloudy
11:55 AM 89.1 °F 28.0 °F 11% 29.98 in 10.0 mi NNE 6.9 mph - N/A   Partly Cloudy
12:55 PM 90.0 °F 27.0 °F 10% 29.97 in 10.0 mi North 3.5 mph - N/A   Partly Cloudy
1:55 PM 91.0 °F 27.0 °F 10% 29.94 in 10.0 mi NNW 4.6 mph - N/A   Partly Cloudy
2:55 PM 91.9 °F 27.0 °F 10% 29.91 in 10.0 mi Variable 5.8 mph - N/A   Partly Cloudy
3:55 PM 93.0 °F 25.0 °F 9% 29.90 in 10.0 mi North 6.9 mph - N/A   Partly Cloudy
4:55 PM 91.9 °F 23.0 °F 8% 29.89 in 10.0 mi NW 6.9 mph - N/A   Partly Cloudy
5:55 PM 88.0 °F 39.0 °F 18% 29.89 in 10.0 mi WSW 11.5 mph - N/A   Partly Cloudy
6:55 PM 84.0 °F 39.0 °F 20% 29.90 in 10.0 mi WSW 6.9 mph - N/A   Scattered Clouds
7:55 PM 82.0 °F 37.0 °F 20% 29.91 in 10.0 mi WSW 6.9 mph - N/A   Partly Cloudy
8:55 PM 80.1 °F 37.9 °F 22% 29.92 in 10.0 mi WSW 6.9 mph - N/A   Partly Cloudy
9:55 PM 75.0 °F 39.9 °F 28% 29.93 in 10.0 mi WNW 4.6 mph - N/A   Partly Cloudy
10:55 PM 73.9 °F 39.9 °F 29% 29.94 in 10.0 mi WNW 5.8 mph - N/A   Partly Cloudy
11:55 PM 73.0 °F 39.0 °F 29% 29.94 in 10.0 mi Calm Calm - N/A   Partly Cloudy